Location: Unspecified
(0.0000°N, 0.0000°E)
Time: 20:35:12
(UTC+02:00)

Palapa 6 Rocket - Visible Passes

Search period start: 30 April 2017 00:00
Search period end: 10 May 2017 00:00
Orbit: 485 x 1220 km, 22.7° (Epoch: 28 April)

Date Brightness Start Highest point End Pass type
(mag) Time Alt. Az. Time Alt. Az. Time Alt. Az.
30 Apr 6.1 04:51:33 20° ENE 04:51:33 20° ENE 04:53:39 10° E visible
30 Apr 3.7 06:33:30 25° WNW 06:37:25 87° NNE 06:42:48 10° ESE visible
30 Apr 6.0 21:06:09 10° WNW 21:11:01 22° NNW 21:16:29 10° NNE visible
30 Apr 6.6 22:58:14 10° NNW 23:01:33 13° N 23:01:40 13° N visible
01 May 6.4 04:38:47 15° E 04:38:47 15° E 04:39:46 10° E visible
01 May 3.7 06:20:44 42° WNW 06:23:09 83° SSW 06:28:48 10° ESE visible
01 May 6.1 20:52:31 10° WNW 20:56:49 19° NNW 21:01:39 10° NNE visible
01 May 6.6 22:44:41 10° NNW 22:47:22 12° N 22:48:29 12° N visible
02 May 3.8 06:07:58 64° WSW 06:08:51 73° SSW 06:14:44 10° ESE visible
02 May 6.2 20:38:59 10° NW 20:42:40 16° NNW 20:46:45 10° NNE visible
02 May 6.6 22:31:18 10° NNW 22:33:13 11° N 22:35:11 10° NNE visible
03 May 4.1 05:55:09 62° S 05:55:09 62° S 06:00:38 10° ESE visible
03 May 6.3 20:25:36 10° NW 20:28:33 14° N 20:31:46 10° NNE visible
03 May 6.6 22:18:37 10° N 22:19:06 10° N 22:19:35 10° N visible
04 May 4.8 05:42:18 42° SSE 05:42:18 42° SSE 05:46:29 10° SE visible
04 May 5.2 07:24:35 10° WSW 07:29:18 20° SSW 07:33:26 10° SSE visible
05 May 5.5 05:29:22 28° SE 05:29:22 28° SE 05:32:17 10° SE visible
05 May 5.4 07:11:18 12° WSW 07:15:04 19° SSW 07:19:15 10° SSE visible
06 May 6.0 05:16:22 19° SE 05:16:22 19° SE 05:18:03 10° SE visible
06 May 5.5 06:58:17 15° SW 07:00:50 18° SSW 07:05:01 10° SSE visible
07 May 6.5 05:03:17 12° SE 05:03:17 12° SE 05:03:45 10° SE visible
07 May 5.6 06:45:12 17° SW 06:46:35 17° SSW 06:50:47 10° SSE visible
07 May 6.6 23:09:22 10° NNW 23:09:37 11° NNW 23:09:37 11° NNW visible
08 May 5.7 06:32:03 17° SSW 06:32:20 17° SSW 06:36:31 10° SSE visible
08 May 6.4 22:55:06 10° NNW 22:56:02 12° N 22:56:02 12° N visible
09 May 5.9 06:18:49 16° S 06:18:49 16° S 06:22:13 10° SSE visible
09 May 6.2 22:40:51 10° NNW 22:42:26 14° N 22:42:26 14° N visible
